Regional Weather Roundup
Issued by NWS

Home | Current Version | Previous Version | Graphics & Text | Print | Product List | Glossary On
Versions: 1 2 3 4 5 6 7 8 9 10 11 12 13 14 15 16 17 18 19 20 21 22 23 24 25 26 27 28 29 30 31 32 33 34 35 36 37 38 39 40 41 42 43 44 45 46 47 48 49 50
620
ASUS43 KMPX 212201
RWRMN
WEATHER ROUNDUP FOR MINNESOTA
NATIONAL WEATHER SERVICE TWIN CITIES/CHANHASSEN MN
500 PM CDT THU MAY 21 2015


NOTE: "FAIR" INDICATES FEW OR NO CLOUDS BELOW 12,000 FEET WITH NO
SIGNIFICANT WEATHER AND/OR OBSTRUCTIONS TO VISIBILITY. N/A MEANS
CURRENT SKY AND/OR WEATHER CONDITIONS ARE NOT AVAILABLE.

MNZ060>063-068>070-212300-
   Twin Cities Metro

CITY           SKY/WX    TMP DP  RH WIND       PRES   REMARKS
TWIN CITIES    SUNNY     73  32  22 NW14      30.02S
ST PAUL        SUNNY     72  36  26 N15       30.02S
CRYSTAL        SUNNY     73  25  16 NW14      30.02S
BLAINE         SUNNY     73  34  23 N15       30.02S
LAKEVILLE      SUNNY     72  37  28 NW20      30.02S
EDEN PRAIRIE   SUNNY     72  34  24 N12G21    30.02R
SOUTH ST PAUL  SUNNY     73  35  24 N14       30.01S
LAKE ELMO      FAIR      72  32  23 N12G21    30.03R
$$
MNZ001>005-007-008-013>017-022>024-027-028-212300-
   Northwest Minnesota

CITY           SKY/WX    TMP DP  RH WIND       PRES   REMARKS
BEMIDJI        SUNNY     65  31  27 NW12G18   30.09S
HALLOCK        SUNNY     66  30  26 N12       30.12S
ROSEAU         SUNNY     68  32  26 NW9       30.09F
WARROAD        SUNNY     61  37  41 E8        30.11F
THIEF RVR FALL SUNNY     66  32  28 NW10G16   30.11F
CROOKSTON      SUNNY     68  37  32 NW9       30.12S
FOSSTON        SUNNY     70  32  24 N16G23    30.11S
DETROIT LAKES  SUNNY     68  30  24 N12       30.11F
MOORHEAD       SUNNY     68  37  32 NW16      30.11F
PARK RAPIDS    SUNNY     69  30  23 N7        30.07F
MAHNOMEN       FAIR      67  32  27 NW10G20   30.10F
$$
MNZ006-009>011-018-025>026-212300-
   North Central Minnesota

CITY           SKY/WX    TMP DP  RH WIND       PRES   REMARKS
BAUDETTE       SUNNY     63  31  30 N13       30.10F
FLAG ISLAND    SUNNY     61  32  33 N15       30.09F
INTL FALLS     SUNNY     63  29  27 N13       30.07F
WASKISH        SUNNY     64  34  32 N8G20     30.09F
BIG FORK       SUNNY     66  27  22 NW5       30.07S
LONGVILLE      SUNNY     64  30  27 W14G21    30.08S
GRAND RAPIDS   SUNNY     66  30  26 NW13G21   30.06S
CRANE LAKE     SUNNY     61  23  23 N8        30.07S
ORR            SUNNY     63  21  20 NW7       30.04S
COOK           SUNNY     64  28  25 NW9       30.06R
WALKER         FAIR      64  30  27 N10       30.08F
$$
MNZ012-019>021-037-212300-
   Northeast Minnesota

CITY           SKY/WX    TMP DP  RH WIND       PRES   REMARKS
DULUTH         SUNNY     68  27  21 NW17G24   30.01S
ELY            SUNNY     63  25  23 N8        30.02S
HIBBING        SUNNY     67  27  22 N13       30.03S
EVELETH        SUNNY     63  28  27 NW12G18   30.05S
DULUTH HARBOR  SUNNY     54  43  66 E5        30.01F
TWO HARBORS    SUNNY     70  36  28 N9G18     29.99R
SILVER BAY     SUNNY     63  30  29 S3        29.99R
GRAND MARAIS     N/A     46  34  62 SW6       30.00F
G MARAIS ARPRT SUNNY     61  21  21 NW10G16   30.00S
$$
MNZ029>031-032-039>041-046>048-054>057-064-212300-
   West Central Minnesota

CITY           SKY/WX    TMP DP  RH WIND       PRES   REMARKS
FERGUS FALLS   SUNNY     68  34  28 N13G20    30.11S
WHEATON        SUNNY     68  32  26 N12G20    30.12F
MORRIS         SUNNY     72  30  21 NW13G22   30.09F
ALEXANDRIA     SUNNY     68  29  23 N12       30.10F
ELBOW LAKE     FAIR      67  34  29 NW13G21   30.10F
WADENA         SUNNY     68  36  30 N6        30.08S
GLENWOOD       SUNNY     70  34  26 NW12G23   30.10S
APPLETON       SUNNY     73  28  19 N15       30.09F
BENSON         SUNNY     72  28  20 N14G20    30.09S
ORTONVILLE     SUNNY     72  27  18 N14G22    30.10F
MADISON        SUNNY     72  25  17 NW13      30.09F
WILLMAR        FAIR      72  34  25 N12G18    30.09S
$$
MNZ033>034-036-042>043-049>051-058-059-212300-
   Central Minnesota

CITY           SKY/WX    TMP DP  RH WIND       PRES   REMARKS
ST CLOUD       SUNNY     71  33  24 NW13      30.05S
SAUK CENTRE    FAIR      68  34  27 NW13      30.08S
PAYNESVILLE    SUNNY     67  34  30 W14       30.08S
AITKIN         SUNNY     70  23  17 W10       30.04S
PINE RIVER     SUNNY     66  36  32 N10G17    30.11S
BRAINERD       SUNNY     67  32  27 N14       30.07S
STAPLES        SUNNY     68  27  21 N14       30.07F
LONG PRAIRIE   FAIR      68  32  26 NW12      30.08S
LITTLE FALLS   SUNNY     70  28  21 NW12G17   30.06S
LITCHFIELD     SUNNY     72  34  25 NW12G17   30.07S
BUFFALO        SUNNY     71  31  22 NW12G18   30.05S
MAPLE LAKE     SUNNY     72  37  28 N12G17    30.06S
$$
MNZ037-044-045-052-053-212300-
   East Central Minnesota

CITY           SKY/WX    TMP DP  RH WIND       PRES   REMARKS
PRINCETON      SUNNY     72  34  25 W16       30.04S
MORA           SUNNY     68  32  26 NW14G20   30.05S
CAMBRIDGE      SUNNY     72  45  37 N12G20    30.02S
RUSH CITY      SUNNY     70  32  25 NW12      30.03S
MOOSE LAKE     SUNNY     68  32  26 N9G17     30.01S
HINCKLEY       FAIR      70  36  28 NW10G18   30.02S
CLOQUET        SUNNY     66  23  19 W17       30.02S
MCGREGOR       SUNNY     68  32  26 NW14      30.05S
$$
MNZ071>073-080-081-089-090-097-098-212300-
   Southwest Minnesota

CITY           SKY/WX    TMP DP  RH WIND       PRES   REMARKS
MONTEVIDEO     SUNNY     73  34  23 N17       30.10S
GRANITE FALLS  SUNNY     71  32  23 NW15G22   30.10F
CANBY          SUNNY     72  32  23 N12G21    30.11S
MARSHALL       SUNNY     73  23  15 N23       30.08F
REDWOOD FALLS  SUNNY     73  33  23 NW14G22   30.07F
OLIVIA         SUNNY     70  32  24 NW16      30.07S
PIPESTONE      MOSUNNY   72  30  21 N10G22    30.11F
WINDOM         SUNNY     72  19  14 NW22G29   30.09S
WORTHINGTON    MOSUNNY   70  36  28 NW21      30.10S
JACKSON        SUNNY     73  19  13 NW25G33   30.09S
TRACY          SUNNY     74  25  16 NW20G26   30.10S
SLAYTON        MOSUNNY   71  33  24 NW22G29   30.10F
$$
MNZ065>067-074>077-082>085-091>093-212300-
   South Central Minnesota

CITY           SKY/WX    TMP DP  RH WIND       PRES   REMARKS
MANKATO        SUNNY     72  32  23 NW20G25   30.05S
NEW ULM        SUNNY     73  28  19 N12G23    30.05S
FAIRMONT       SUNNY     73  21  14 NW20      30.06F
GLENCOE        SUNNY     72  38  29 NW12      30.05S
FARIBAULT      SUNNY     73  34  23 NW13G21   30.04S
OWATONNA       SUNNY     72  30  21 NW21      30.04S
WASECA         SUNNY     72  34  25 NW20G25   30.05S
ALBERT LEA     SUNNY     72  27  18 NW13G23   30.03S
$$
MNZ078>079-086>088-094>096-212300-
   Southeast Minnesota

CITY           SKY/WX    TMP DP  RH WIND       PRES   REMARKS
ROCHESTER      SUNNY     71  34  25 NW20G26   30.02S
RED WING       SUNNY     73  30  20 NW12G21   29.99S
STANTON        SUNNY     73  37  26 NW15G21   30.00F
DODGE CENTER   SUNNY     72  28  20 NW15G26   30.03S
WINONA         SUNNY     73  41  31 NW10G18   29.99S
AUSTIN         SUNNY     70  30  23 NW13G24   30.02S
PRESTON        SUNNY     70  32  24 NW16G22   30.01F
$$
ABBREVIATIONS USED IN REMARKS
   TC - TEMPERATURES IN CELSIUS
  WCI - WIND CHILL INDEX
   HX - HEAT INDEX
  VSB - VISIBILITY
$$



USA.gov is the U.S. government's official web portal to all federal, state and local government web resources and services.